User: anonymous   Login
Location: Unspecified
(0.0000°N, 0.0000°E)
Time: 07:21:48
(UTC+01:00)
Language:

NOSS 2-2 (E) - Orbit

View from above orbital plane
View from above orbital plane
View from above satellite
View from above satellite

Ground track
Ground track

The orbit data is extracted from the following two-line orbital elements,

1 21809U 91076E   15010.68505502 0.00000350  00000-0  16238-3 0    05
2 21809  63.3680 230.2250 0671000  13.3928 346.6072 13.41045566    05
Epoch (UTC): 10 January 2015 16:26:28
Eccentricity: 0.0671000
inclination: 63.3680°
perigee height: 603 km
apogee height: 1607 km
right ascension of ascending node: 230.2250°
argument of perigee: 13.3928°
revolutions per day: 13.41045566
mean anomaly at epoch: 346.6072°
orbit number at epoch: 0

The dashed part of the orbit path shows where the satellite is in the earth's shadow,  

DLR